Weather History for Emporia, KS

Change the Weather History Date:

Monday, April 29, 2013

  Actual Average Record
Temperature  
Mean Temperature 71 °F 60 °F  
Max Temperature 87 °F 72 °F 87 °F (2013)
Min Temperature 54 °F 49 °F 36 °F (2005)
Degree Days  
Heating Degree Days 0 6  
Month to date heating degree days 457 292  
Since 1 July heating degree days 4839 4724  
Cooling Degree Days 6 1  
Month to date cooling degree days 6 23  
Year to date cooling degree days 6 25  
Growing Degree Days 21 (Base 50)    
Moisture  
Dew Point 54 °F    
Average Humidity 60    
Maximum Humidity 93    
Minimum Humidity 27    
Precipitation  
Precipitation 0.00 in 0.18 in 0.70 in (2006)
Month to date precipitation 3.64 3.20  
Year to date precipitation 8.10 7.59  
Sea Level Pressure  
Sea Level Pressure 29.70 in    
Wind  
Wind Speed 14 mph (South)    
Max Wind Speed 28 mph    
Max Gust Speed 35 mph    
Visibility 10 miles    
Events      
T = Trace of Precipitation, MM = Missing Value Source: NWS Daily Summary

Daily Weather History Graph

Daily Weather History Graph

Search for Another Location

Airport:

Trip Planner

Search our weather history database for the weather conditions in past years. The results will help you decide how hot, cold, wet, or windy it might be!

Date:

Astronomy

Apr. 29, 2013 Rise Set
Actual Time 6:30 AM CDT 8:14 PM CDT
Civil Twilight 6:01 AM CDT 8:43 PM CDT
Nautical Twilight 5:27 AM CDT 9:17 PM CDT
Astronomical Twilight 4:51 AM CDT 9:54 PM CDT
Moon No Moon Rise 9:53 AM CDT
Length of Visible Light 14h 41m
Length of Day
13h 44m
Waning Gibbous, 80% of the Moon is Illuminated
Apr 29
Waning Gibbous
May 2
Last Quarter
May 9
New
May 17
First Quarter
May 24
Full

Hourly Weather History & Observations

Time (CDT) Temp. Heat Index Dew Point Humidity Pressure Visibility Wind Dir Wind Speed Gust Speed Precip Events Conditions
12:53 AM 60.1 °F - 55.0 °F 83% 29.78 in 10.0 mi South 15.0 mph - N/A   Clear
1:53 AM 60.1 °F - 55.0 °F 83% 29.76 in 10.0 mi South 16.1 mph - N/A   Clear
2:53 AM 59.0 °F - 54.0 °F 83% 29.75 in 10.0 mi South 15.0 mph - N/A   Clear
3:53 AM 57.9 °F - 54.0 °F 87% 29.76 in 10.0 mi South 11.5 mph - N/A   Clear
4:53 AM 57.0 °F - 53.1 °F 87% 29.76 in 10.0 mi South 12.7 mph - N/A   Clear
5:53 AM 55.9 °F - 53.1 °F 90% 29.76 in 10.0 mi South 9.2 mph - N/A   Clear
6:53 AM 55.0 °F - 52.0 °F 89% 29.78 in 8.0 mi SSE 8.1 mph - N/A   Clear
7:53 AM 57.9 °F - 54.0 °F 87% 29.80 in 9.0 mi SSE 4.6 mph - N/A   Clear
8:53 AM 62.1 °F - 57.0 °F 84% 29.79 in 9.0 mi South 4.6 mph - N/A   Clear
9:53 AM 66.9 °F - 59.0 °F 76% 29.78 in - South 9.2 mph - N/A   Clear
10:53 AM 75.0 °F - 59.0 °F 57% 29.76 in 10.0 mi North - - N/A   Clear
11:53 AM 77.0 °F - 57.9 °F 52% 29.74 in 10.0 mi SSW 11.5 mph - N/A   Clear
12:53 PM 81.0 °F 81.0 °F 57.0 °F 44% 29.71 in 10.0 mi SSW 11.5 mph 20.7 mph N/A   Clear
1:53 PM 84.9 °F 83.3 °F 54.0 °F 34% 29.68 in 10.0 mi SW 12.7 mph 19.6 mph N/A   Clear
2:53 PM 86.0 °F 84.5 °F 55.0 °F 35% 29.66 in 10.0 mi South 12.7 mph 23.0 mph N/A   Clear
3:53 PM 87.1 °F 85.3 °F 55.0 °F 33% 29.64 in 10.0 mi South 20.7 mph 24.2 mph N/A   Clear
4:53 PM 86.0 °F 84.0 °F 53.1 °F 32% 29.61 in 10.0 mi South 20.7 mph 29.9 mph N/A   Clear
5:53 PM 86.0 °F - 48.0 °F 27% 29.60 in 10.0 mi South 27.6 mph 34.5 mph N/A   Clear
6:53 PM 82.9 °F - 50.0 °F 32% 29.61 in 10.0 mi South 19.6 mph 25.3 mph N/A   Clear
7:53 PM 79.0 °F - 50.0 °F 36% 29.62 in 10.0 mi South 13.8 mph - N/A   Clear
8:53 PM 73.9 °F - 53.1 °F 48% 29.61 in 10.0 mi SSE 15.0 mph 25.3 mph N/A   Clear
9:53 PM 73.9 °F - 50.0 °F 43% 29.62 in 10.0 mi South 17.3 mph 25.3 mph N/A   Clear
10:53 PM 71.1 °F - 52.0 °F 51% 29.62 in 10.0 mi South 17.3 mph - N/A   Clear
11:53 PM 69.1 °F - 54.0 °F 58% 29.63 in 10.0 mi South 17.3 mph 25.3 mph N/A   Clear